| time (UTC) | temp C | wind direction | speed KPH | gust KPH | rain 1hr cm | rain 24hr cm | rain mn cm | humidity % | barometer mb |
| 20260504190014 | 13 | 360 | 9.7 | 25.7 | 0.00 | 0.00 | 0.00 | 40 | 1010.9 |
| 20260504184518 | 12 | 360 | 14.5 | 30.6 | 0.00 | 0.00 | 0.00 | 40 | 1010.9 |
| 20260504183015 | 13 | 360 | 12.9 | 24.1 | 0.00 | 0.00 | 0.00 | 38 | 1010.9 |
| 20260504181520 | 13 | 360 | 8.0 | 24.1 | 0.00 | 0.00 | 0.00 | 41 | 1010.9 |
| 20260504180012 | 13 | 360 | 12.9 | 19.3 | 0.00 | 0.00 | 0.00 | 43 | 1011.0 |
| 20260504174511 | 13 | 360 | 14.5 | 22.5 | 0.00 | 0.00 | 0.00 | 43 | 1011.1 |
| 20260504173009 | 13 | 360 | 14.5 | 22.5 | 0.00 | 0.00 | 0.00 | 43 | 1011.2 |
| 20260504171510 | 12 | 360 | 12.9 | 24.1 | 0.00 | 0.00 | 0.00 | 42 | 1011.2 |
| 20260504081506 | 11 | 360 | 11.3 | 22.5 | 0.00 | 0.00 | 0.00 | 45 | 1010.7 |
| 20260504044533 | 15 | 360 | 16.1 | 24.1 | 0.00 | 0.00 | 0.00 | 32 | 1004.3 |
| 20260504043033 | 15 | 360 | 8.0 | 16.1 | 0.00 | 0.00 | 0.00 | 31 | 1004.0 |
| 20260504041532 | 15 | 360 | 11.3 | 19.3 | 0.00 | 0.00 | 0.00 | 32 | 1003.6 |
| 20260504040034 | 13 | 360 | 0.0 | 6.4 | 0.00 | 0.00 | 0.00 | 35 | 1003.0 |
| 20260504034535 | 15 | 360 | 3.2 | 12.9 | 0.00 | 0.00 | 0.00 | 31 | 1002.8 |
| 20260504033046 | 16 | 360 | 3.2 | 8.0 | 0.00 | 0.00 | 0.00 | 28 | 1002.6 |
| 20260504031532 | 18 | 360 | 8.0 | 16.1 | 0.00 | 0.00 | 0.00 | 25 | 1002.5 |
| 20260504030031 | 15 | 360 | 9.7 | 16.1 | 0.00 | 0.00 | 0.00 | 30 | 1002.4 |
| 20260504024542 | 15 | 360 | 6.4 | 12.9 | 0.00 | 0.00 | 0.00 | 32 | 1002.2 |
| 20260504023030 | 16 | 360 | 4.8 | 8.0 | 0.00 | 0.00 | 0.00 | 33 | 1001.9 |
| 20260504021528 | 18 | 360 | 1.6 | 6.4 | 0.00 | 0.00 | 0.00 | 26 | 1001.9 |
| 20260504020029 | 21 | 275 | 4.8 | 6.4 | 0.00 | 0.00 | 0.00 | 22 | 1001.8 |
| 20260504014527 | 22 | 360 | 1.6 | 8.0 | 0.00 | 0.00 | 0.00 | 22 | 1002.0 |
| 20260504013026 | 23 | 360 | 8.0 | 17.7 | 0.00 | 0.00 | 0.00 | 20 | 1002.1 |
| 20260504011525 | 23 | 360 | 12.9 | 19.3 | 0.00 | 0.00 | 0.00 | 18 | 1002.2 |
| 20260504010028 | 23 | 360 | 9.7 | 14.5 | 0.00 | 0.00 | 0.00 | 19 | 1002.4 |
| 20260504004537 | 25 | 360 | 4.8 | 20.9 | 0.00 | 0.00 | 0.00 | 17 | 1002.5 |
| 20260504003020 | 25 | 360 | 8.0 | 19.3 | 0.00 | 0.00 | 0.00 | 17 | 1002.6 |
| 20260504001520 | 25 | 360 | 11.3 | 17.7 | 0.00 | 0.00 | 0.00 | 18 | 1002.8 |
| 20260504000018 | 25 | 360 | 8.0 | 14.5 | 0.00 | 0.00 | 0.00 | 17 | 1002.9 |
| 20260503234516 | 25 | 360 | 16.1 | 29.0 | 0.00 | 0.00 | 0.00 | 17 | 1003.2 |
| 20260503233016 | 26 | 360 | 14.5 | 24.1 | 0.00 | 0.00 | 0.00 | 16 | 1003.2 |
| 20260503231514 | 26 | 360 | 11.3 | 25.7 | 0.00 | 0.00 | 0.00 | 16 | 1003.3 |
| 20260503230013 | 26 | 360 | 12.9 | 25.7 | 0.00 | 0.00 | 0.00 | 17 | 1003.5 |
| 20260503224511 | 25 | 360 | 9.7 | 25.7 | 0.00 | 0.00 | 0.00 | 17 | 1003.5 |
| 20260503223011 | 26 | 360 | 16.1 | 29.0 | 0.00 | 0.00 | 0.00 | 18 | 1003.7 |
| 20260503221507 | 26 | 360 | 14.5 | 24.1 | 0.00 | 0.00 | 0.00 | 18 | 1004.0 |
| 20260503220006 | 25 | 360 | 12.9 | 32.2 | 0.00 | 0.00 | 0.00 | 18 | 1004.2 |
| 20260503214503 | 26 | 263 | 11.3 | 22.5 | 0.00 | 0.00 | 0.00 | 17 | 1004.4 |
| 20260503213006 | 25 | 360 | 16.1 | 25.7 | 0.00 | 0.00 | 0.00 | 18 | 1004.6 |
| 20260503211606 | 25 | 360 | 14.5 | 27.4 | 0.00 | 0.00 | 0.00 | 20 | 1004.9 |
| 20260503210059 | 25 | 360 | 11.3 | 29.0 | 0.00 | 0.00 | 0.00 | 19 | 1005.3 |
| 20260503204657 | 26 | 360 | 14.5 | 25.7 | 0.00 | 0.00 | 0.00 | 20 | 1005.5 |
| 20260503203053 | 25 | 360 | 9.7 | 24.1 | 0.00 | 0.00 | 0.00 | 23 | 1005.7 |
| 20260503201552 | 25 | 360 | 14.5 | 24.1 | 0.00 | 0.00 | 0.00 | 22 | 1005.8 |
| 20260503200049 | 25 | 360 | 14.5 | 29.0 | 0.00 | 0.00 | 0.00 | 23 | 1006.1 |
| 20260503194550 | 25 | 360 | 11.3 | 27.4 | 0.00 | 0.00 | 0.00 | 23 | 1006.4 |
| 20260503193051 | 24 | 360 | 9.7 | 25.7 | 0.00 | 0.00 | 0.00 | 24 | 1006.6 |
| 20260503191541 | 23 | 360 | 11.3 | 29.0 | 0.00 | 0.00 | 0.00 | 26 | 1007.1 |